Theta_e
351 350 347 344 343 344 341 340 336 335 334 335 335 341 348 349 348 347 346 344 343 341 340 340 340 336 333 333 330 329 330 334 335 334 334 335 335 337 338 338 339 339 339 339 336 332 331 331 330 330 331 330 330 332 334 337 336 332 330 332 335 334 330 331 334 333 334 335 335 335 335 334 333 333 332 332 333 333 332 332 332 333 332 331 331
351 350 349 344 343 343 341 341 337 335 334 334 335 340 348 349 349 347 347 345 343 341 341 340 339 336 334 333 331 330 332 334 335 334 334 334 335 337 339 337 339 339 338 338 337 333 331 331 330 331 331 330 331 334 336 337 335 331 331 334 335 332 327 328 333 333 334 335 335 334 333 333 332 333 332 332 333 333 332 332 332 332 332 331 331
350 349 349 344 343 343 342 342 338 336 333 335 336 340 346 349 350 348 348 346 345 342 340 340 338 337 335 333 332 333 334 335 336 336 335 334 336 336 337 336 338 338 335 337 337 334 331 330 331 332 332 332 334 336 337 336 334 331 331 332 334 332 327 328 332 332 333 334 333 332 333 332 332 332 332 332 332 332 332 331 332 332 331 330 331
349 348 348 345 342 342 343 343 339 336 334 336 338 341 344 347 349 348 348 346 345 343 341 340 338 338 335 334 334 335 335 336 336 338 336 334 337 337 337 337 338 337 335 336 337 335 332 330 332 333 334 335 336 339 338 335 334 331 329 329 330 329 326 327 330 330 331 332 332 332 333 332 332 332 332 332 331 331 331 332 331 331 331 330 330
348 349 348 345 343 341 342 343 340 337 335 336 340 342 342 345 347 347 347 346 345 345 342 339 338 338 336 335 336 337 337 337 337 338 337 336 337 337 336 339 339 338 336 336 336 335 333 331 332 333 335 337 337 339 337 334 334 330 327 325 323 322 323 326 329 331 331 331 332 333 333 332 331 332 331 331 331 331 331 331 331 330 330 330 330
347 348 348 347 345 342 341 342 340 337 335 336 341 342 340 342 345 346 347 345 344 345 344 340 339 338 337 336 337 337 337 339 338 337 339 337 337 337 337 340 340 337 335 335 335 335 334 333 333 333 336 337 338 339 336 334 332 329 325 323 319 316 320 327 331 332 332 332 333 333 333 333 332 332 332 332 332 332 331 331 331 330 329 329 329
347 347 347 348 347 344 342 341 339 335 334 336 340 341 341 341 344 346 347 345 343 345 345 341 339 339 338 337 337 337 337 339 339 338 339 339 339 339 340 340 339 337 334 333 335 334 334 334 335 335 337 338 338 339 335 333 331 329 326 324 320 316 318 325 331 332 333 334 333 333 334 333 332 332 333 333 333 332 332 331 331 331 330 330 329
348 347 348 348 347 345 341 340 338 335 334 336 340 341 341 341 345 347 347 345 342 343 343 341 340 338 338 337 337 337 338 340 340 339 340 341 340 341 340 340 339 337 336 336 336 336 335 336 337 337 338 338 338 338 334 332 330 329 327 325 323 317 315 320 329 332 333 334 332 333 333 333 332 333 333 333 332 331 332 331 331 331 330 330 329
347 348 348 347 347 345 341 340 340 336 336 337 340 342 342 340 343 347 347 345 344 343 342 342 340 339 339 338 338 337 338 340 340 340 340 341 340 340 339 339 338 336 338 338 337 337 337 337 337 337 338 338 338 337 333 331 329 327 326 324 322 317 314 320 331 334 334 333 332 334 333 333 332 333 333 333 332 331 332 331 331 330 330 330 329
346 347 348 346 347 345 340 342 341 339 339 339 340 340 342 341 341 346 347 346 344 342 343 343 341 340 340 339 338 337 338 339 340 339 340 341 340 339 338 338 337 337 337 336 337 337 337 336 334 336 337 338 338 335 331 330 328 326 325 322 319 315 313 320 331 335 334 334 333 334 334 335 333 332 332 333 332 332 332 331 330 330 329 330 329
346 345 347 346 346 344 343 343 341 339 339 340 340 339 342 342 341 343 345 346 344 343 345 343 341 340 339 339 338 337 338 338 339 339 340 340 339 338 337 338 338 337 337 337 337 336 337 333 330 334 337 338 337 333 330 329 328 326 324 321 316 315 318 324 333 335 335 334 333 333 332 334 333 331 332 332 332 332 331 330 330 330 330 329 329
345 346 346 345 346 344 343 342 337 336 338 337 338 339 341 342 341 341 342 345 345 344 345 343 342 340 339 339 338 338 337 336 337 338 339 339 339 337 336 337 337 337 337 337 336 336 336 331 329 333 337 337 336 333 330 330 328 325 324 322 319 322 327 331 334 334 334 333 332 333 333 334 331 329 331 332 332 331 331 330 330 330 330 329 329
344 346 345 344 345 343 343 341 338 337 336 335 335 336 339 340 341 342 341 344 344 344 345 343 342 340 339 339 338 338 336 335 335 336 338 337 336 335 335 336 336 337 337 337 336 336 334 329 327 329 335 337 335 332 330 329 327 326 325 322 322 326 327 329 332 333 335 332 332 334 334 334 329 328 331 332 332 332 331 331 330 329 329 329 328
344 345 344 343 343 343 343 342 339 336 336 335 334 333 335 337 337 339 342 343 343 344 344 344 342 340 339 338 337 337 336 335 334 334 335 334 334 334 334 334 335 336 337 336 335 334 331 327 325 327 333 336 334 331 329 328 326 326 324 321 322 325 326 328 329 332 335 332 334 334 332 333 330 330 331 332 332 332 331 330 330 329 329 329 328
343 344 343 341 340 340 341 342 340 335 335 336 335 333 333 334 333 336 340 342 343 343 344 343 341 340 339 337 337 337 336 335 333 333 334 332 333 333 333 334 335 336 336 335 334 333 329 326 325 328 333 334 331 329 328 328 326 325 323 321 321 324 328 330 328 329 334 333 334 333 333 332 329 330 331 332 332 331 331 330 329 329 328 328 327
339 342 343 342 339 339 339 340 340 336 336 335 336 335 333 334 333 333 338 341 342 343 343 342 341 340 339 337 336 335 334 334 333 333 334 333 332 332 333 333 334 336 336 334 334 333 330 327 326 329 331 329 328 328 327 326 325 324 323 322 322 324 327 329 329 327 330 332 333 332 334 330 327 329 331 332 331 331 330 329 328 328 327 327 327
333 339 341 341 340 340 340 339 340 338 338 337 337 337 334 334 332 330 335 338 340 342 342 342 341 340 338 336 335 334 334 334 333 332 332 332 330 331 332 332 333 335 335 335 334 334 331 327 327 329 329 327 327 327 326 325 326 324 324 324 322 323 326 329 328 327 331 333 333 333 333 328 326 330 331 331 330 330 330 328 328 327 327 326 326
325 331 337 339 339 340 340 340 340 340 340 338 338 338 336 334 332 330 331 334 336 338 339 340 339 338 336 336 335 334 334 334 333 332 331 331 330 329 330 329 332 334 335 334 334 333 331 328 327 328 327 326 327 326 326 326 327 326 325 325 323 321 324 329 328 329 331 331 334 333 333 327 326 331 331 331 330 330 329 328 327 326 326 325 325
321 324 329 335 337 337 339 340 340 340 340 340 339 338 337 335 333 330 330 330 332 333 334 336 336 336 335 334 333 332 331 333 333 332 330 330 329 328 327 327 329 331 333 333 333 333 332 329 328 328 326 326 325 325 324 325 327 327 325 324 323 318 319 327 329 329 325 328 333 332 333 326 324 330 331 330 331 329 328 327 326 326 325 325 325
321 322 323 328 332 335 337 339 341 341 341 341 340 340 339 338 335 332 331 330 330 329 330 334 335 334 333 331 330 329 330 331 332 332 330 330 329 327 325 324 325 327 328 328 330 333 333 330 328 327 325 324 324 324 323 322 324 325 325 324 322 317 323 331 330 328 325 327 331 331 332 323 321 329 330 330 331 329 328 327 327 326 324 324 324
322 322 321 323 326 329 334 337 340 341 342 341 340 341 340 339 338 334 332 330 330 329 329 333 333 332 331 330 330 330 332 332 333 333 332 330 329 327 323 321 323 324 324 324 327 331 333 330 328 326 324 325 326 326 325 323 323 323 324 322 319 322 331 332 328 328 329 327 327 331 328 318 324 330 329 330 330 329 327 326 327 326 325 324 324
322 322 320 320 323 325 328 332 337 340 342 341 340 341 340 340 341 336 334 333 332 330 330 332 334 332 331 331 331 333 335 335 335 334 334 333 330 327 322 321 323 324 322 323 326 329 332 331 328 325 325 327 327 326 327 326 324 324 323 320 320 329 333 331 328 328 329 327 327 331 323 317 327 331 328 330 329 329 327 326 327 326 324 324 323
319 321 321 319 321 322 325 328 332 337 340 342 340 341 340 340 341 339 337 336 335 333 332 334 335 335 334 334 334 336 336 334 336 335 334 334 332 326 323 324 326 324 322 321 323 326 330 331 328 325 327 328 328 328 330 329 327 325 325 324 326 332 332 330 329 328 329 329 329 329 318 318 329 330 328 328 328 329 328 327 327 326 323 323 322
317 320 320 319 320 321 323 326 329 333 338 341 341 340 340 339 339 339 338 337 337 336 336 334 334 336 335 335 337 337 336 335 336 336 336 336 333 327 324 327 328 325 321 321 323 323 326 330 328 326 329 330 329 328 329 332 330 328 329 329 330 332 331 330 329 329 331 329 329 327 316 320 330 329 329 329 328 329 327 327 326 325 323 321 322
317 320 320 318 319 321 322 324 326 329 333 338 340 340 339 339 337 337 337 338 338 337 337 336 336 336 335 335 337 336 334 335 337 337 337 338 334 329 328 329 332 329 324 326 328 325 327 330 330 328 331 331 328 326 327 331 332 331 331 331 331 331 331 330 330 332 333 329 330 329 319 323 330 328 329 329 328 328 327 327 326 326 323 320 319
317 319 319 318 318 319 320 322 325 326 329 333 338 339 339 339 338 337 337 338 338 336 337 338 338 337 335 335 336 335 335 336 338 338 337 337 334 333 333 331 334 333 328 330 333 330 330 332 331 331 332 330 327 326 327 329 331 332 331 331 331 330 331 330 330 331 332 331 332 331 321 323 329 328 329 329 328 328 327 327 326 326 324 318 316
318 319 319 318 317 318 319 321 323 325 326 329 333 336 337 337 338 337 336 337 337 336 338 339 338 337 336 336 336 336 336 336 338 337 336 337 336 336 336 333 334 334 330 331 333 331 331 331 330 330 330 328 327 326 327 329 331 332 331 331 330 330 330 330 331 330 330 333 332 332 324 322 327 329 329 328 328 328 327 327 326 326 324 320 318
319 319 318 318 317 317 319 320 321 323 325 326 328 331 333 333 334 334 333 335 337 336 338 339 339 338 338 337 337 336 335 336 337 337 336 337 338 338 337 335 334 333 332 332 333 332 332 332 331 330 330 328 328 327 326 327 329 331 331 331 331 330 330 330 331 331 330 332 332 333 328 322 323 328 329 328 328 328 328 328 327 326 324 322 322
320 319 318 317 317 317 318 320 321 321 322 324 326 328 329 329 330 329 328 331 334 336 337 338 339 339 338 338 337 336 336 336 336 337 337 337 337 338 337 336 335 334 333 332 332 333 333 333 332 332 331 328 328 327 326 326 328 330 330 331 331 331 330 330 330 330 331 331 332 332 330 325 323 326 328 329 328 327 328 328 327 326 324 323 324
320 319 318 317 317 317 318 319 321 322 321 322 325 326 326 327 327 326 325 326 328 331 334 336 337 337 337 337 338 337 337 337 337 338 337 337 337 336 337 336 334 334 335 333 332 332 333 332 332 333 331 330 328 327 327 326 326 328 330 331 332 332 331 331 330 330 330 330 333 333 332 330 327 323 325 329 329 327 328 329 328 326 325 323 324
320 319 318 317 317 317 317 318 320 322 321 321 323 323 324 325 324 325 325 323 323 324 329 332 333 335 336 337 338 337 337 337 337 338 338 339 338 336 336 335 334 334 335 335 333 332 332 332 332 332 330 330 328 327 328 327 327 327 328 330 332 333 332 332 330 329 330 330 331 334 333 331 329 325 323 327 329 328 327 329 329 326 326 323 323
320 318 317 317 317 317 318 319 319 320 320 320 321 321 322 322 323 324 324 324 324 322 324 326 328 331 331 334 338 338 337 337 337 338 338 339 338 337 336 334 335 335 336 337 335 333 332 331 331 330 330 329 328 328 328 328 327 327 328 329 332 333 333 333 332 330 330 329 329 332 334 333 330 328 323 324 327 328 327 329 329 326 326 324 324
318 317 317 318 318 318 318 319 318 318 318 317 319 319 318 320 320 322 322 323 326 324 322 323 323 324 324 327 334 337 338 337 337 338 337 337 337 337 336 335 337 336 337 338 336 334 333 331 331 331 330 329 328 327 327 328 327 326 327 328 330 333 333 333 332 332 330 329 329 328 333 333 332 330 327 323 324 326 326 328 329 327 327 324 324
316 317 317 317 317 317 317 318 317 317 316 316 318 317 316 318 317 319 320 320 324 325 324 323 322 322 324 325 327 331 336 337 337 337 337 337 336 337 336 335 336 336 338 338 336 336 334 332 332 333 331 330 328 327 327 327 326 326 327 327 329 332 333 334 332 332 331 330 329 328 329 330 332 332 330 327 324 325 325 327 329 328 327 325 325
317 318 318 316 316 317 317 317 318 317 316 316 316 316 316 317 317 317 318 319 321 323 325 324 323 323 324 326 325 327 332 335 336 337 336 337 337 337 337 336 337 337 336 336 336 337 336 333 332 332 331 330 328 327 327 327 326 326 327 327 327 329 332 333 332 331 331 330 328 328 328 327 329 330 331 330 328 326 323 325 329 328 328 326 326
318 318 317 316 316 318 319 319 319 319 318 317 317 318 318 318 317 317 318 319 319 321 323 322 323 324 323 325 328 328 329 331 334 335 336 337 337 337 337 337 337 336 335 336 336 336 336 334 332 332 331 330 329 327 327 327 327 325 326 327 327 327 330 332 332 330 330 331 329 328 328 327 328 328 328 330 330 328 324 324 328 328 328 328 327
320 319 318 317 317 318 320 321 321 321 320 319 319 319 319 319 318 319 320 320 319 319 320 320 322 324 324 325 326 327 327 329 331 332 334 336 336 336 337 337 337 336 334 335 336 336 335 335 334 333 331 332 330 329 327 327 327 326 326 327 327 327 328 329 330 330 329 329 328 328 327 327 327 327 327 328 329 329 326 324 325 326 327 328 328
322 321 319 319 318 318 321 322 322 322 321 320 320 320 319 319 318 319 320 319 320 319 318 320 322 322 324 325 325 325 325 327 328 329 331 333 335 335 336 336 336 336 335 335 336 336 335 334 334 334 333 332 332 331 330 327 326 326 326 326 326 327 327 328 328 328 329 329 328 327 326 326 326 326 326 326 327 328 328 326 324 324 324 326 327
323 323 322 322 321 321 322 323 322 321 320 320 320 319 317 315 314 315 315 316 317 319 320 320 321 322 323 324 324 325 325 326 326 327 327 327 330 332 334 335 335 336 335 336 337 336 335 333 334 335 334 333 333 333 332 330 327 325 326 325 326 327 327 328 328 328 328 328 328 326 326 326 326 326 326 326 327 327 329 328 327 326 325 325 326
323 324 324 324 323 322 323 324 323 320 320 320 318 315 314 313 313 313 313 314 314 318 321 321 320 322 323 322 324 324 324 324 325 326 326 325 325 327 328 330 331 333 334 336 337 336 335 334 334 334 333 333 334 335 334 331 328 326 325 325 326 327 327 327 328 327 328 328 327 326 325 326 326 326 326 327 327 327 328 330 329 328 327 326 324
324 324 324 323 323 323 323 324 323 319 319 319 316 314 313 312 313 312 312 313 313 314 319 321 321 322 322 322 323 323 323 323 323 324 325 325 325 324 324 324 325 327 329 332 335 336 336 335 335 333 332 332 332 335 335 332 330 327 325 326 327 328 328 327 328 327 328 328 327 326 325 326 326 327 327 327 327 327 327 328 329 328 327 328 326
324 324 324 323 323 323 322 324 324 320 318 318 318 316 313 313 313 313 312 312 313 313 315 319 321 321 322 321 322 321 321 321 322 323 323 324 324 325 325 325 324 323 324 326 328 332 334 335 335 333 333 333 332 333 334 332 330 328 327 327 327 328 328 328 328 328 327 327 328 327 325 325 326 327 327 327 327 327 328 327 328 328 327 328 329
324 323 323 322 323 323 322 324 323 321 318 317 318 316 314 314 314 314 314 313 315 316 318 321 321 321 321 319 320 319 319 320 321 321 322 323 323 324 324 325 325 326 325 325 325 328 331 333 334 334 334 333 333 332 333 332 330 329 328 328 328 328 328 328 328 328 328 327 327 326 326 326 326 326 327 327 327 327 327 327 327 327 327 328 329
323 323 323 323 322 322 322 323 323 321 319 316 316 315 315 317 317 317 317 316 317 318 318 320 319 319 319 318 318 318 318 319 319 320 321 321 322 323 323 324 325 326 327 328 329 329 330 331 332 334 335 333 332 333 332 331 331 329 329 328 328 328 328 329 329 329 328 328 327 327 326 327 326 326 327 327 327 327 327 327 327 327 327 327 328
322 322 323 323 322 322 322 324 323 321 319 315 316 317 318 320 320 319 319 318 318 316 315 316 317 318 318 318 317 317 317 318 318 319 320 320 321 322 323 324 325 326 327 328 328 329 330 331 331 332 333 332 333 333 333 331 330 330 329 328 328 328 328 328 330 330 329 328 327 327 327 327 327 326 327 326 327 326 327 327 326 327 326 327 327
322 322 323 323 322 321 322 324 323 321 319 317 316 317 318 317 316 316 316 315 315 315 315 316 316 317 318 318 317 316 316 317 318 318 319 319 321 321 322 323 324 325 327 327 327 327 328 330 330 331 332 333 333 333 332 331 330 330 330 329 329 329 328 328 329 331 330 329 328 327 327 328 328 327 326 325 326 326 326 326 325 326 326 327 327
321 322 323 324 323 321 322 325 323 320 319 317 315 316 317 316 315 316 315 314 315 317 317 317 317 316 317 318 317 317 316 317 317 318 318 319 319 320 321 322 322 323 325 326 327 328 328 330 329 328 330 332 333 333 332 331 331 331 330 330 329 328 327 328 329 329 330 330 329 328 328 328 328 327 326 325 326 326 325 325 324 325 326 326 328
320 321 322 325 325 322 324 325 323 320 318 316 314 315 317 317 316 316 316 316 317 318 317 317 316 316 316 317 317 317 316 316 316 317 317 318 318 319 319 320 321 321 322 324 325 327 328 329 330 329 328 330 332 332 332 332 332 332 331 330 329 328 326 327 328 328 329 329 330 330 329 328 328 327 327 326 326 325 325 324 324 325 326 326 327
319 320 324 328 327 324 325 326 323 320 319 317 315 315 316 315 316 316 316 316 316 317 316 315 316 316 316 317 316 317 317 316 316 316 316 317 317 318 318 319 319 320 320 321 323 324 327 328 330 330 329 329 330 330 331 332 332 333 332 329 329 329 327 325 327 328 328 329 329 330 330 329 328 327 326 325 326 325 325 325 324 324 325 325 325
319 322 326 329 328 326 327 326 323 321 320 317 317 317 315 315 315 316 316 316 316 316 316 316 316 316 316 316 316 316 316 316 316 316 315 315 316 317 317 318 319 319 319 320 321 322 324 326 327 329 330 331 332 331 331 331 331 331 331 330 329 329 328 327 328 328 328 328 327 329 330 329 328 327 326 326 326 326 325 325 325 324 324 324 324
322 325 328 329 329 327 328 326 323 322 320 318 317 317 316 315 316 317 317 317 317 317 317 317 316 315 315 316 315 315 315 315 316 316 315 315 315 315 316 317 318 319 319 319 320 321 322 324 326 327 328 331 333 333 332 331 331 330 330 330 328 327 328 329 329 329 330 331 329 329 328 328 329 328 328 327 326 326 326 325 325 324 324 324 324
Wind_Speed
8 10 10 13 13 12 9 8 9 9 8 7 5 6 10 12 13 14 14 16 17 18 19 20 20 19 17 17 17 18 18 15 13 13 14 15 15 16 16 16 16 15 14 14 14 13 12 12 11 11 12 13 14 13 13 14 14 15 17 19 21 21 22 23 21 18 17 17 18 19 19 18 17 17 16 16 15 15 13 13 14 15 17 16 16
9 10 10 12 12 13 10 8 8 8 8 7 6 5 9 11 13 14 14 15 16 18 19 20 20 19 18 17 17 17 16 14 14 13 14 15 16 16 16 16 16 15 14 14 13 13 12 12 11 11 12 14 14 13 13 14 15 16 18 20 21 20 20 22 20 18 16 16 18 18 18 17 16 16 15 14 13 12 12 13 14 14 16 15 16
9 9 10 12 12 13 11 9 8 8 8 7 6 5 8 10 13 14 14 14 16 18 20 21 21 20 18 17 17 16 15 14 14 13 13 14 15 16 15 15 16 15 14 13 13 13 13 12 11 11 12 13 14 14 14 14 15 16 18 20 20 19 20 21 20 17 15 15 17 18 17 17 15 15 14 13 12 13 14 14 15 15 15 15 15
8 9 10 12 13 13 12 9 8 8 7 7 5 5 7 8 12 14 14 15 16 19 20 21 20 19 18 18 17 16 15 14 13 12 12 14 14 15 14 14 15 15 15 14 14 13 13 13 12 12 11 13 14 15 14 14 15 16 18 19 19 18 18 20 19 16 14 15 18 17 16 15 14 14 14 14 14 15 15 14 14 15 15 14 15
8 8 9 11 13 13 13 10 9 8 8 7 6 5 6 7 9 13 15 17 17 18 20 21 20 18 18 18 17 16 15 14 12 12 13 14 14 14 14 15 15 15 15 15 14 14 13 13 13 11 11 12 13 15 14 14 15 16 17 17 17 16 18 20 20 17 14 13 14 14 13 13 13 13 14 14 14 15 15 15 14 14 14 14 14
7 7 8 11 13 13 14 12 10 9 9 7 6 5 5 6 7 11 15 18 17 18 20 21 20 18 17 17 17 16 15 14 13 12 14 15 15 14 15 15 16 16 15 15 14 13 12 12 12 11 11 11 12 14 14 15 16 16 16 16 15 15 18 20 20 16 14 13 12 11 11 12 12 12 13 13 13 14 15 15 15 15 14 14 14
8 6 7 10 11 13 14 12 11 10 10 8 7 5 5 6 6 10 15 17 18 19 20 20 19 17 17 17 16 16 15 13 14 14 14 16 16 15 16 15 16 16 15 14 13 12 11 11 11 11 11 11 12 13 15 16 16 16 15 15 15 16 17 19 17 12 10 9 9 9 10 11 12 11 11 12 13 13 14 13 14 13 13 12 12
10 7 7 9 10 12 14 12 11 11 10 9 8 6 5 6 6 9 14 17 19 19 20 20 19 18 18 17 16 16 15 14 14 14 15 16 15 15 16 16 15 15 15 14 13 12 11 11 11 12 12 12 12 13 15 16 16 15 13 13 14 15 16 16 14 13 10 7 7 9 9 11 11 11 10 11 12 13 13 13 13 12 12 12 12
11 10 10 10 10 12 15 12 11 10 9 8 7 6 5 6 7 9 13 17 20 19 20 21 20 19 19 17 17 16 15 15 15 15 16 15 15 15 15 15 15 15 15 14 13 12 11 11 12 12 12 12 12 13 14 14 14 13 12 12 12 13 15 14 12 10 10 8 8 9 9 10 11 11 10 11 11 12 11 12 13 12 13 12 12
13 13 13 14 13 15 16 13 12 11 9 7 7 6 5 6 7 8 12 17 19 20 21 22 20 20 19 18 18 17 15 15 16 16 16 15 14 14 15 15 15 15 15 14 14 13 11 11 11 11 12 13 13 13 13 12 12 12 11 10 11 12 14 13 10 8 7 7 8 8 9 10 12 11 9 10 9 10 10 10 12 12 12 11 11
16 18 17 16 15 17 17 15 15 14 11 9 7 7 6 6 7 9 13 17 19 20 20 20 20 19 18 18 17 17 16 15 16 16 16 15 14 14 16 15 15 15 15 15 15 14 12 10 11 12 13 14 13 12 12 11 11 11 10 10 11 13 13 11 8 7 6 7 9 9 9 10 12 11 9 9 9 9 9 9 11 12 13 11 10
19 20 19 16 16 18 17 15 17 17 14 13 10 8 8 7 8 10 13 17 18 19 19 19 19 18 18 18 17 16 16 15 15 16 16 15 14 14 15 15 16 16 16 15 15 14 12 10 11 12 13 14 13 12 11 11 11 10 10 10 12 12 11 9 5 3 6 8 9 8 8 10 12 11 10 9 10 11 10 10 11 12 12 11 11
20 19 17 14 14 17 17 15 16 16 15 15 13 11 10 8 8 11 13 17 18 19 19 19 19 18 18 18 17 16 15 15 15 15 15 15 14 14 14 15 16 17 16 15 14 13 12 10 10 11 13 13 12 12 11 10 10 10 11 10 11 12 11 9 4 2 6 8 7 7 8 10 10 9 10 9 9 10 11 11 11 11 11 11 11
22 19 17 13 10 15 15 15 17 17 16 15 15 14 12 10 10 11 13 16 17 18 18 18 18 18 18 17 16 16 15 14 15 15 14 14 13 13 13 14 16 17 16 14 13 12 11 10 10 11 12 12 12 13 12 10 9 10 10 10 11 10 9 7 3 3 6 6 5 6 7 9 10 9 9 9 9 10 10 10 11 11 10 10 10
22 21 19 18 12 13 14 17 19 18 18 17 16 16 15 13 12 12 13 15 17 18 18 18 17 17 17 15 15 16 15 15 15 14 14 13 13 13 13 14 15 16 15 13 12 11 11 10 11 12 13 12 13 13 12 11 9 9 9 9 9 6 5 2 1 3 5 4 5 5 8 9 9 9 8 9 9 9 10 10 11 10 10 10 10
21 22 19 19 17 13 12 17 20 20 20 21 20 18 16 13 12 12 12 14 15 17 17 17 16 16 15 15 15 16 15 15 15 14 14 13 13 14 14 14 15 15 14 12 11 11 11 10 12 13 14 14 13 13 11 10 9 8 8 7 6 4 3 3 2 3 3 4 5 5 9 8 7 9 8 8 9 9 9 10 10 10 10 9 9
18 21 20 18 18 15 11 14 20 20 19 19 19 18 15 13 12 12 12 13 14 15 16 16 16 16 16 15 16 15 15 15 15 15 14 13 13 13 14 14 15 15 15 13 11 11 11 10 12 14 15 14 13 12 10 10 8 7 7 5 4 4 4 7 5 3 3 4 4 5 9 8 9 10 7 8 8 8 10 9 9 9 9 8 9
15 17 19 19 18 17 15 13 16 17 17 17 17 17 16 14 14 13 13 13 13 14 14 15 15 16 16 16 16 15 15 16 16 15 14 13 14 14 14 14 14 14 14 13 11 11 11 11 12 14 15 14 13 11 9 8 7 7 6 5 3 3 5 9 5 3 4 4 3 5 9 7 9 10 7 8 8 8 9 8 8 8 8 8 9
14 15 15 17 17 16 16 14 11 12 15 15 15 16 16 15 14 14 13 13 13 13 14 14 15 16 17 16 16 15 15 16 16 16 15 14 14 14 14 14 13 13 13 12 11 10 11 12 13 14 14 13 11 9 8 6 6 6 5 4 3 2 5 6 4 2 4 3 4 6 6 3 8 10 7 7 8 8 8 8 8 8 7 8 9
14 14 13 14 14 14 14 12 10 9 11 12 13 15 17 17 16 14 13 13 13 13 14 15 16 16 17 17 16 16 16 17 17 16 16 16 15 14 14 14 12 12 12 11 10 11 12 14 14 14 13 12 10 8 6 5 6 6 5 4 2 4 3 4 3 2 2 3 4 6 4 3 8 10 7 7 7 8 8 8 8 7 7 8 8
14 13 11 11 11 11 11 10 10 9 8 9 12 13 17 18 16 15 14 13 13 13 14 15 16 16 17 16 16 16 16 16 17 17 17 17 16 15 15 14 13 12 12 11 10 11 13 15 15 14 13 10 9 8 6 5 6 6 5 4 3 3 1 3 0 0 1 3 5 5 2 4 9 9 8 7 7 7 7 8 8 6 8 8 7
11 12 10 9 8 8 9 9 8 8 7 7 10 11 15 17 14 15 15 13 13 13 13 15 16 16 17 16 16 16 17 17 18 18 18 18 18 16 16 15 13 12 12 12 10 11 13 15 15 14 13 10 9 8 7 6 6 6 6 5 4 4 3 0 1 1 1 3 5 4 2 6 9 8 9 6 6 6 7 8 7 5 6 7 6
8 9 10 8 7 6 6 7 7 7 7 6 8 7 11 15 12 13 14 14 13 13 13 14 15 15 15 16 16 15 16 18 19 19 19 19 19 18 17 15 13 13 13 12 11 10 12 15 16 13 12 10 8 8 8 7 7 7 6 6 6 6 3 2 2 1 1 3 5 1 2 9 10 7 8 7 6 6 6 8 6 3 4 6 6
6 8 9 7 7 5 5 5 5 6 6 7 8 8 9 10 11 12 12 14 14 13 13 14 14 14 16 15 15 16 16 18 18 18 19 18 20 19 18 16 14 13 13 13 11 11 12 15 16 13 11 10 8 7 8 8 8 8 7 7 7 5 3 3 3 2 2 4 6 1 1 10 11 8 7 6 7 6 6 7 5 2 4 4 5
7 8 9 7 6 5 4 4 4 4 4 7 7 8 11 8 8 11 13 15 13 14 14 14 13 14 17 16 16 18 16 16 16 17 19 20 21 20 19 17 15 15 14 14 13 13 13 15 15 13 11 10 7 7 7 8 8 8 7 7 7 5 4 4 4 2 2 5 5 1 1 10 12 8 7 6 7 6 6 7 5 1 2 1 2
7 9 9 7 6 5 5 3 3 3 2 5 6 6 10 10 8 8 12 15 12 12 13 14 14 15 17 15 14 16 15 15 15 16 17 19 22 21 19 18 17 17 16 14 14 15 14 15 15 13 12 9 7 7 7 7 8 7 7 7 6 6 5 4 4 3 3 4 4 3 2 9 12 8 7 7 6 7 6 6 5 2 0 0 1
9 9 8 8 7 6 5 4 3 2 1 2 6 5 5 7 9 7 8 12 11 12 12 11 13 14 16 14 13 12 13 14 14 15 14 16 21 21 19 18 18 18 17 15 14 15 14 13 13 11 10 8 7 8 7 7 7 7 7 7 7 7 6 5 5 4 3 4 4 4 3 6 10 8 7 7 6 6 6 6 5 3 0 1 1
10 9 9 8 7 6 6 5 3 2 1 2 3 4 4 3 6 6 5 7 8 9 9 9 10 11 12 13 14 12 11 11 12 14 13 14 18 20 19 18 18 17 17 15 14 14 13 13 12 10 9 8 8 8 8 8 7 7 8 8 7 8 7 7 6 5 4 5 5 7 4 4 7 8 7 7 7 6 6 7 5 3 2 2 1
10 9 8 8 7 7 7 6 4 3 2 1 2 3 4 5 4 3 4 4 5 7 5 5 7 9 11 13 14 12 10 10 11 9 10 13 15 20 20 17 18 17 15 15 13 13 13 13 12 10 9 8 8 8 8 8 8 9 9 8 8 8 8 8 7 6 6 6 6 7 4 2 4 8 8 8 7 7 7 7 6 4 4 3 2
10 9 9 8 7 7 7 7 5 4 3 1 2 3 2 4 5 3 1 1 5 7 5 4 6 7 8 10 10 10 10 9 10 9 8 11 12 17 20 17 19 18 15 14 12 12 13 12 11 10 9 8 8 8 7 8 9 9 10 9 9 9 9 9 8 7 7 6 6 6 5 4 3 5 8 9 8 8 8 8 7 6 5 4 4
10 10 9 8 7 7 8 7 7 6 4 3 3 3 2 3 3 3 3 2 2 4 6 7 8 9 8 8 8 7 8 7 9 12 10 9 11 15 19 20 20 18 14 13 11 11 12 11 11 10 9 9 8 8 7 8 9 9 10 11 10 9 9 9 9 9 8 7 7 6 6 5 5 5 7 10 10 10 9 9 8 7 6 5 5
11 11 10 9 8 8 8 8 8 7 6 5 4 3 3 3 3 2 3 2 1 1 3 5 8 10 9 9 9 6 4 6 9 12 12 12 13 13 17 19 17 15 12 12 11 11 11 11 11 10 9 9 8 8 8 8 9 10 11 11 11 10 10 10 10 10 9 9 9 8 7 6 6 6 6 10 11 11 10 10 10 8 7 6 5
12 11 11 11 9 9 9 8 8 8 7 6 5 4 4 3 3 3 3 3 1 1 0 1 4 8 9 10 11 7 4 5 8 10 11 13 14 13 15 16 14 13 11 10 11 11 10 11 10 9 9 9 9 8 8 8 10 10 11 11 12 11 11 11 11 11 10 10 10 9 9 8 8 8 6 9 12 13 13 11 11 10 9 7 7
13 12 12 11 10 9 9 8 9 9 9 8 7 6 5 4 4 4 4 4 1 1 1 0 1 4 6 8 10 8 6 5 6 9 10 12 14 15 17 16 12 12 11 10 10 10 10 10 10 9 10 10 9 9 9 10 11 10 11 11 12 13 12 12 13 13 12 11 11 10 10 9 9 9 8 9 10 12 15 14 12 12 10 8 8
13 13 13 12 11 10 9 9 9 9 9 9 9 8 7 6 6 6 6 5 3 2 2 2 1 1 3 5 6 5 6 5 6 9 10 12 13 15 16 15 12 11 12 11 9 10 10 10 10 10 11 11 10 10 10 11 11 11 11 11 12 13 13 13 14 13 13 12 12 11 11 10 9 9 10 12 11 10 14 17 14 12 12 10 9
13 14 14 14 12 10 9 9 8 7 8 7 8 7 7 7 7 7 6 6 5 3 3 3 2 1 2 2 3 3 3 4 6 9 11 12 11 12 14 14 14 13 14 15 12 10 10 10 11 11 11 11 11 11 11 11 11 11 11 11 13 13 14 14 15 14 14 13 13 13 13 12 11 10 8 11 13 11 12 16 16 13 12 12 10
13 13 14 14 12 11 9 8 7 6 5 5 6 6 6 6 7 7 7 7 5 5 4 3 2 2 2 2 3 4 3 2 5 6 8 11 10 11 13 15 18 16 15 17 17 13 11 11 11 12 12 12 13 13 12 11 11 11 11 12 13 14 14 15 15 15 15 14 14 14 14 14 13 12 11 11 12 13 12 14 17 16 15 13 11
12 13 13 13 12 11 9 8 7 5 5 4 3 4 5 6 6 7 7 7 5 6 5 3 3 3 2 3 4 5 4 3 3 4 6 11 12 9 9 12 16 18 16 15 18 17 14 13 12 12 13 13 14 14 12 11 11 11 11 13 14 14 14 15 15 16 15 15 15 15 15 14 14 14 14 13 12 13 13 13 16 17 18 17 13
13 12 12 11 11 11 9 8 7 5 5 3 2 2 3 5 7 7 8 8 6 6 5 3 3 3 3 4 4 4 4 4 3 3 4 9 12 12 10 7 8 14 16 15 16 18 18 18 15 13 14 14 13 14 14 11 11 10 10 13 14 14 15 14 15 16 16 16 16 16 15 15 15 15 15 15 14 13 13 14 16 16 18 20 18
14 13 12 11 10 10 9 8 6 5 4 2 1 2 3 5 6 7 8 8 7 6 4 3 3 3 4 4 4 4 4 4 4 3 4 6 9 13 15 12 9 10 13 17 17 17 19 20 18 16 16 16 16 14 13 13 11 10 10 12 13 15 16 16 16 16 17 18 17 17 16 15 15 16 16 15 15 15 14 15 15 14 16 19 20
14 14 13 12 11 10 9 8 7 5 3 3 3 3 3 4 5 7 8 8 8 7 4 3 3 3 3 4 3 3 4 5 4 3 4 5 6 9 11 13 15 14 16 19 19 17 20 21 20 20 20 20 20 15 13 15 14 11 9 11 13 15 15 16 17 17 18 18 17 18 17 16 15 16 16 16 16 16 16 16 15 14 15 17 19
15 15 14 13 12 11 10 9 8 7 5 4 4 3 3 4 4 6 6 7 8 7 5 3 3 3 3 3 3 3 4 5 5 4 5 5 6 7 7 8 10 13 17 20 21 20 22 23 22 23 23 23 23 18 13 14 15 13 10 10 12 13 15 17 18 18 19 18 18 19 18 17 17 16 16 17 17 17 17 17 17 15 14 15 17
16 15 15 14 13 12 11 10 9 8 7 6 5 4 4 3 4 5 5 6 6 6 4 3 2 3 2 2 3 4 5 6 6 6 6 6 6 7 7 8 8 9 12 15 19 21 23 24 24 25 22 21 23 21 16 16 17 14 11 9 8 8 11 15 18 19 20 19 19 20 19 18 18 17 17 17 17 17 17 16 17 17 16 15 15
16 15 15 15 14 13 12 11 10 9 9 8 7 5 4 3 4 3 4 4 4 4 4 3 3 3 3 2 3 5 6 7 7 6 7 7 7 8 8 9 10 9 10 11 14 17 21 23 25 27 24 20 22 21 19 19 19 15 10 8 8 8 8 11 16 19 20 20 21 20 19 18 19 18 18 17 17 17 17 17 17 17 17 17 16
16 15 15 15 14 13 13 12 11 10 10 10 9 6 4 3 3 2 2 3 3 4 4 4 3 3 2 2 3 4 6 6 7 7 7 8 7 8 9 9 10 11 11 12 13 14 18 21 23 26 26 24 23 20 18 19 20 19 15 10 7 6 7 9 12 15 19 21 21 21 20 19 19 18 18 18 17 17 18 18 18 17 18 18 18
17 16 15 15 15 14 14 14 12 11 11 11 9 7 5 4 3 2 2 1 2 4 4 3 3 3 2 2 3 4 5 6 6 6 7 8 8 8 8 10 11 12 12 13 14 14 16 19 22 24 25 27 27 20 18 21 22 22 23 20 16 11 9 9 7 8 15 19 19 21 21 20 20 19 19 19 17 17 18 19 19 19 19 20 19
18 17 16 15 15 14 14 15 13 11 11 11 9 7 5 5 4 3 2 1 2 3 2 2 1 1 1 2 2 3 4 5 6 6 7 7 8 9 9 10 11 12 13 13 14 15 15 16 19 23 25 27 28 23 21 24 21 21 25 24 22 20 16 12 9 7 7 12 17 20 21 22 21 20 20 19 16 17 19 18 18 20 20 21 20
18 17 16 15 16 15 15 15 13 12 12 11 10 8 6 5 5 4 3 3 3 3 3 2 1 1 1 1 2 3 3 4 5 6 6 7 8 9 10 11 11 12 13 13 14 15 16 15 16 21 25 28 29 28 28 27 23 21 25 24 21 20 19 16 15 13 8 6 11 16 19 21 22 22 22 20 18 18 19 18 18 19 21 22 21
18 17 16 16 16 16 16 16 14 12 13 12 11 9 7 6 5 4 4 4 4 3 3 2 1 1 0 1 2 2 3 3 4 5 6 7 7 9 10 11 12 12 13 14 14 14 15 15 15 18 23 27 29 32 33 32 28 23 21 24 23 18 16 17 18 18 14 9 7 8 13 18 21 23 23 21 20 19 19 18 18 18 19 21 22
17 17 16 16 16 16 16 16 15 13 13 13 12 10 9 7 6 5 5 5 4 3 3 2 2 1 1 1 1 2 2 2 3 4 5 6 7 8 9 11 12 13 14 14 15 14 15 15 16 17 19 22 25 30 34 34 32 28 22 23 23 16 11 12 14 16 15 14 11 9 10 13 14 17 19 20 20 20 20 19 19 19 18 19 20
16 17 16 16 16 16 17 17 16 14 14 14 13 12 10 8 7 7 6 6 5 4 4 4 3 2 2 2 1 2 2 2 3 3 4 5 6 7 9 10 11 13 14 15 15 15 15 16 16 17 18 20 21 25 31 34 32 30 27 25 26 24 18 12 12 13 11 11 11 10 13 14 13 14 15 18 20 21 21 21 20 20 19 18 18
Wind_Direction
92 116 129 137 139 134 131 126 118 117 124 136 132 133 153 166 172 170 168 168 166 164 161 157 157 158 155 153 154 154 155 152 152 144 138 139 137 134 135 135 129 127 129 127 127 124 122 119 114 113 115 113 111 111 112 114 114 106 105 107 103 102 104 101 97 96 97 96 97 97 94 91 89 89 89 87 82 78 77 80 82 82 82 81 80
107 120 136 143 145 139 136 135 119 115 124 137 139 133 149 163 172 171 170 168 165 165 164 161 159 159 158 156 155 157 158 156 152 147 141 141 141 139 141 140 132 131 133 129 127 126 123 118 113 116 119 115 114 116 117 119 118 111 111 110 105 104 107 106 101 100 101 100 96 93 91 90 91 89 88 87 84 84 86 89 86 82 83 84 82
110 119 140 148 150 142 139 140 122 112 122 130 134 130 141 159 170 171 172 168 164 167 167 164 163 161 160 158 156 160 159 156 153 150 145 145 147 144 146 144 138 136 136 131 128 126 122 117 116 120 122 119 119 121 122 124 122 117 118 116 110 106 107 107 102 102 102 100 93 89 90 88 89 87 85 84 85 84 86 95 91 86 87 87 82
108 119 139 151 151 145 140 138 123 110 118 123 124 126 135 152 167 170 170 167 166 169 168 167 166 163 161 159 157 159 156 156 156 150 146 149 150 145 148 144 137 136 135 132 129 127 123 118 118 122 123 123 123 123 124 128 126 122 124 123 118 111 109 108 101 103 108 106 94 86 88 87 84 82 83 83 86 83 82 91 88 86 87 85 81
103 112 125 147 151 149 139 134 125 113 118 119 116 122 129 139 164 172 169 167 168 168 168 169 167 164 162 159 159 159 156 157 158 148 144 151 152 148 149 142 134 133 135 133 130 128 126 122 120 122 121 122 124 125 127 130 129 126 128 128 124 114 108 105 97 101 112 114 97 85 89 89 85 80 83 85 87 84 84 87 83 83 83 83 82
101 107 114 139 148 149 137 133 129 119 120 118 117 116 120 125 152 175 176 170 169 168 165 169 167 166 163 160 163 160 157 158 158 149 144 151 152 149 147 140 134 135 136 133 131 131 129 126 124 124 124 124 126 128 130 131 130 128 129 128 123 115 110 103 92 93 100 103 96 88 92 92 89 83 85 88 86 85 86 84 80 80 80 80 80
106 104 105 126 138 143 137 134 130 124 122 121 121 120 118 111 129 172 181 171 170 169 161 165 167 167 165 163 165 162 160 158 156 151 146 149 150 149 143 138 137 134 135 133 133 133 130 130 128 128 129 129 132 132 133 133 132 132 130 125 118 113 115 107 90 85 88 95 99 96 96 94 95 90 88 90 87 87 87 85 82 82 82 80 78
105 103 100 118 134 140 138 137 134 126 122 126 125 124 121 106 117 164 179 171 169 168 160 164 167 168 167 165 166 164 162 156 154 151 144 147 152 152 145 142 141 135 132 133 134 132 131 132 132 133 132 133 138 137 137 137 136 136 129 121 118 113 115 109 93 85 79 90 107 99 97 97 99 96 93 93 89 88 85 85 86 85 83 79 77
97 102 104 114 132 145 140 136 135 125 122 127 126 124 119 110 115 151 173 170 165 164 164 167 169 168 167 165 164 163 160 154 153 149 145 149 153 153 153 149 145 140 137 137 137 134 136 136 136 137 136 139 141 140 141 140 138 136 125 119 121 116 112 106 95 87 84 97 106 96 98 103 104 101 100 96 92 92 89 91 90 87 87 87 88
90 99 108 114 129 149 144 140 141 132 130 128 128 129 122 120 115 135 161 166 164 165 167 168 170 168 165 165 163 162 158 153 153 151 152 155 154 151 153 150 145 142 140 141 139 139 143 143 141 139 139 144 142 143 144 141 138 132 123 118 120 118 113 105 89 82 96 106 100 92 98 104 106 105 104 98 98 100 101 106 99 91 92 95 95
86 94 103 116 135 149 146 147 149 143 143 141 137 137 135 138 125 130 150 162 165 166 167 166 170 170 166 168 166 163 158 155 155 156 158 160 158 153 151 149 145 141 141 145 144 145 150 147 141 140 141 144 144 144 143 139 136 127 119 111 112 113 108 102 84 80 100 102 95 97 100 99 102 104 102 95 96 96 97 104 98 92 91 92 92
87 94 100 118 138 145 152 154 152 150 151 149 148 146 143 148 143 138 149 160 164 165 168 167 170 170 166 169 169 165 161 159 158 161 164 164 162 158 155 152 148 145 149 153 153 152 153 148 141 144 145 145 143 141 141 139 132 121 111 105 111 113 104 94 78 91 99 96 101 108 100 95 98 100 99 94 91 92 92 94 93 92 89 87 86
89 93 98 120 140 144 156 161 156 158 156 153 154 155 149 155 160 150 152 159 165 169 170 170 170 169 167 169 171 168 165 165 165 166 168 167 165 163 160 156 152 152 156 160 159 156 153 148 144 149 151 148 143 140 140 136 129 117 105 103 114 113 102 85 69 130 106 99 108 109 95 92 98 96 99 97 87 90 92 91 91 89 86 84 82
86 90 89 98 141 153 158 169 166 162 160 159 159 159 157 168 176 164 160 162 167 172 173 173 172 169 168 169 171 169 167 170 171 170 171 171 169 167 165 160 157 158 161 163 161 156 150 146 144 151 156 151 143 142 138 133 126 118 105 102 116 112 98 75 51 122 105 103 107 103 101 98 97 92 99 100 89 90 90 88 88 86 84 82 82
82 90 87 80 101 146 162 174 171 164 165 167 166 165 165 175 184 176 167 165 170 174 176 176 175 172 170 170 171 171 171 174 173 172 176 174 171 172 169 165 161 160 162 163 157 151 148 143 140 147 153 147 142 142 137 133 125 119 109 100 116 119 104 65 1 124 108 102 103 104 111 113 109 99 103 103 93 92 91 89 87 84 82 80 81
81 87 87 82 87 118 154 172 171 169 171 172 171 172 172 176 183 182 173 169 172 174 178 177 177 176 174 174 172 171 174 176 174 174 179 176 173 172 170 168 164 161 164 163 153 148 148 142 139 145 147 143 143 144 137 133 125 123 114 97 116 131 100 33 24 120 115 107 107 112 116 125 126 111 110 107 99 95 91 89 88 86 83 79 79
82 87 90 88 87 99 124 158 168 176 181 178 175 175 176 178 180 182 177 175 176 176 180 180 179 179 178 177 174 173 176 178 175 176 180 178 175 173 171 169 166 164 167 165 155 150 149 144 143 146 145 142 145 145 139 134 130 129 115 89 107 146 103 55 56 107 102 112 105 114 122 120 115 113 116 109 106 100 94 93 91 88 84 78 76
75 84 93 93 89 95 106 133 164 182 188 184 182 180 179 180 180 180 180 181 181 181 184 187 185 183 182 179 178 178 180 180 179 178 181 182 178 178 174 170 167 165 168 168 162 156 149 146 147 147 145 143 146 145 141 139 134 133 123 95 76 164 117 64 53 99 101 120 88 119 134 118 111 118 122 115 113 107 101 100 93 87 85 78 73
74 76 86 96 99 99 106 120 146 175 181 183 188 187 185 183 182 181 181 182 183 186 188 190 188 185 184 182 181 181 183 184 183 182 184 185 181 182 179 171 167 164 168 172 168 159 151 150 149 146 144 142 144 144 145 149 148 143 133 113 63 146 128 45 15 92 123 143 89 129 155 132 123 127 127 124 122 114 109 102 94 90 83 78 75
80 77 75 89 101 102 105 118 130 152 173 184 194 195 193 186 185 186 184 183 184 189 191 191 189 187 188 186 186 185 187 189 189 187 186 186 184 185 180 172 169 163 166 173 172 162 154 154 151 147 144 141 142 141 147 160 173 168 150 144 96 124 126 354 345 72 121 142 110 129 165 160 135 133 133 131 125 119 116 107 100 95 83 81 78
92 85 77 78 89 99 107 120 129 141 158 179 196 199 197 190 187 190 187 185 187 192 194 194 192 192 193 192 192 191 190 192 192 190 188 187 186 185 181 176 172 164 162 168 172 163 157 159 157 151 145 144 145 144 145 154 179 185 178 170 152 154 236 323 221 10 62 119 130 134 186 166 134 133 136 135 130 124 120 110 107 103 92 90 83
100 92 85 80 80 89 101 115 119 129 136 158 184 193 197 191 190 194 190 187 192 197 199 198 197 197 199 196 196 195 193 194 193 191 190 188 188 185 182 180 174 166 161 162 169 167 165 165 159 154 152 150 152 156 154 156 175 184 192 182 183 218 234 239 221 256 95 111 130 138 212 151 132 139 141 140 138 129 122 113 117 121 106 100 88
93 93 87 82 84 82 85 102 104 117 123 136 165 175 188 192 192 194 193 192 196 201 204 203 202 202 201 200 200 199 199 198 193 190 190 189 189 186 184 183 177 170 163 160 166 170 172 169 165 161 158 159 165 171 165 166 174 173 186 193 210 232 207 179 239 233 147 125 130 145 215 144 135 150 146 145 148 138 127 119 126 126 107 104 92
89 96 91 81 89 92 82 93 96 111 119 127 150 157 168 190 196 190 196 200 202 205 207 209 207 209 207 206 207 203 203 202 192 185 185 187 188 185 188 188 180 179 172 163 165 169 170 172 173 168 169 180 185 178 169 168 170 170 185 205 219 220 198 203 227 213 149 139 138 79 184 147 141 156 156 150 151 147 134 127 133 117 111 117 101
97 97 93 87 95 103 97 96 94 104 118 125 140 161 170 184 187 186 195 199 205 209 209 212 212 219 215 212 216 211 207 203 189 184 185 186 187 185 189 189 184 186 178 169 169 169 168 171 177 182 192 201 191 178 178 168 164 176 189 206 219 208 204 218 224 218 150 155 169 323 207 150 144 159 168 158 156 152 142 136 144 152 130 156 125
96 91 91 90 94 100 104 105 98 96 106 130 131 154 178 186 178 178 194 200 208 213 213 218 218 223 221 218 220 210 205 200 184 186 191 190 189 184 187 188 188 188 180 177 176 172 171 172 180 195 204 200 182 179 189 180 173 186 192 199 215 210 210 219 215 211 178 184 217 270 247 159 149 162 175 168 167 160 155 148 157 201 284 122 157
92 92 94 91 89 87 95 103 94 101 76 119 130 127 153 189 190 173 190 204 210 218 218 223 226 227 225 224 225 209 199 203 190 188 191 190 190 186 185 187 190 189 183 185 179 176 181 177 180 196 199 190 185 184 188 194 192 193 196 199 211 211 214 223 206 202 206 191 215 262 265 180 159 165 183 179 178 171 169 163 164 196 320 87 109
95 93 93 90 89 81 81 91 81 95 86 57 122 127 90 116 199 207 224 212 205 226 224 218 227 232 232 231 235 223 197 204 201 193 184 183 192 190 186 186 191 191 188 191 184 182 188 182 182 190 191 192 192 192 194 196 203 207 207 204 208 212 215 227 211 200 215 200 234 268 272 216 173 170 187 186 190 188 179 175 171 182 158 120 102
99 97 94 89 88 86 81 87 83 81 106 70 90 124 108 95 131 212 259 242 223 237 222 210 228 236 238 234 239 235 211 209 211 203 184 185 199 196 190 189 192 193 194 196 191 187 189 188 188 188 192 200 197 198 205 201 203 211 213 212 214 216 213 224 223 209 219 214 232 245 240 248 184 180 191 188 197 201 194 191 186 185 175 166 168
104 102 98 92 88 93 88 86 83 70 91 133 84 85 113 101 101 118 104 298 263 254 238 239 247 249 249 243 244 241 233 230 222 214 194 190 200 197 194 195 194 195 199 199 196 193 193 192 190 192 192 201 208 199 206 214 213 211 213 216 214 217 214 218 225 217 222 215 210 222 233 262 228 200 199 190 196 204 204 201 198 198 187 180 184
111 106 98 95 93 93 90 85 81 66 67 95 89 67 68 74 80 98 96 71 321 289 271 262 258 258 263 263 263 253 241 247 237 224 215 204 197 195 197 200 200 198 199 197 199 199 201 198 191 197 196 202 212 197 199 218 224 218 213 215 213 216 214 215 222 219 222 212 205 222 235 248 243 226 208 197 197 199 204 208 208 205 200 194 184
115 108 103 100 97 92 88 84 81 69 60 72 74 58 48 46 53 73 76 73 72 21 302 285 274 267 275 276 271 280 262 246 242 229 227 225 212 208 206 205 204 200 200 198 201 202 204 205 201 205 202 206 214 203 205 219 230 230 218 214 211 214 214 215 220 219 222 217 212 215 204 207 229 237 221 210 206 198 198 207 212 207 207 211 194
115 113 112 109 104 97 93 86 82 75 65 62 60 51 40 32 38 47 44 36 73 87 65 286 284 275 288 287 268 276 287 252 248 243 234 227 226 229 221 215 213 205 203 201 204 206 205 206 205 208 205 207 216 214 217 222 230 234 226 218 209 209 214 214 219 219 220 220 221 219 204 197 212 230 231 220 214 204 198 200 210 212 212 213 205
121 123 119 115 113 106 100 92 84 78 70 63 59 52 43 38 37 35 30 27 25 63 73 211 270 262 277 291 279 271 268 242 243 264 253 228 233 239 228 226 227 214 203 199 206 212 212 209 204 203 205 209 214 216 223 229 232 233 230 226 214 208 212 216 217 216 217 220 224 223 218 213 208 215 221 225 225 213 204 200 205 210 211 211 205
127 129 125 122 122 117 110 102 92 81 74 65 61 57 51 48 42 35 26 24 23 26 35 3 337 278 267 284 296 285 271 245 229 257 254 229 234 242 232 230 239 228 204 200 215 222 218 216 210 206 205 209 217 217 220 228 231 230 228 229 224 213 209 218 219 216 217 219 225 225 225 229 220 215 217 223 231 225 210 205 206 208 207 210 209
134 135 134 132 129 127 123 115 107 91 77 63 58 55 54 56 49 41 31 29 24 19 32 2 331 326 313 290 315 318 288 262 238 247 243 227 231 245 240 232 238 238 216 205 209 220 229 226 218 216 213 213 220 219 216 224 230 229 227 227 228 222 213 215 220 219 215 213 222 226 224 230 229 228 229 222 225 229 219 210 208 210 208 208 212
145 144 143 142 140 139 139 131 122 109 91 69 61 53 53 59 53 50 41 33 30 22 13 351 347 341 335 340 345 336 314 274 247 251 247 234 228 239 243 237 236 234 223 215 208 207 223 232 225 224 225 222 227 229 218 215 225 230 228 224 224 225 220 217 217 220 218 214 222 226 223 227 230 232 235 230 226 224 222 217 214 217 218 211 208
157 155 153 154 154 150 150 144 134 125 113 92 77 65 66 62 49 54 45 33 36 24 4 356 4 348 352 353 345 342 335 326 269 258 258 244 234 230 233 236 235 225 219 223 218 207 208 223 231 232 234 232 236 244 239 221 220 228 227 223 222 221 221 219 220 221 222 221 223 225 225 225 227 230 230 231 233 225 219 222 220 222 224 220 211
166 166 164 164 163 158 156 150 144 136 127 120 123 115 92 66 44 44 37 27 29 24 13 15 6 346 2 353 348 352 342 351 328 278 269 253 243 240 235 228 230 223 220 223 220 210 207 217 227 233 239 242 240 245 256 248 224 225 232 225 218 218 219 217 220 221 223 228 228 226 228 227 226 227 228 227 230 227 219 214 212 217 225 226 218
174 173 171 174 170 164 163 156 152 145 148 156 119 83 66 54 41 35 29 24 21 19 24 28 13 4 3 346 347 358 344 349 340 298 284 273 258 253 249 245 245 240 231 226 222 214 214 221 225 231 240 248 246 238 247 255 237 226 237 238 223 218 218 213 217 220 219 227 231 228 228 228 228 227 227 226 226 226 220 210 205 211 220 226 225
181 179 178 181 178 175 173 165 158 150 156 148 101 67 47 40 37 32 23 20 18 13 13 19 14 13 8 354 350 351 346 341 331 318 293 279 276 270 264 257 253 252 246 238 234 225 223 228 226 230 237 243 247 240 233 247 251 234 225 240 235 227 224 216 217 220 219 223 226 228 230 228 229 228 226 225 225 225 221 215 213 214 215 222 227
187 185 185 187 185 184 180 171 163 154 147 139 129 107 69 43 40 36 22 21 23 16 9 13 11 7 9 8 358 339 337 332 315 309 300 280 274 274 272 268 259 257 255 249 246 238 232 232 228 229 235 238 245 245 233 238 249 237 220 233 236 230 230 226 223 220 219 220 220 224 226 227 229 229 228 225 224 225 223 220 218 216 212 214 214
191 190 191 192 190 188 186 177 168 160 149 146 145 131 108 79 66 56 39 34 35 35 34 39 29 11 359 349 351 341 332 325 308 297 293 285 278 276 275 271 262 255 257 254 250 243 238 235 228 226 229 234 244 246 235 234 242 240 229 232 232 224 227 228 228 226 221 219 219 222 222 223 225 225 226 224 223 225 225 223 219 217 213 211 207
194 194 193 196 195 191 191 181 171 166 155 149 147 139 137 115 93 79 67 66 65 60 57 51 22 355 342 329 342 341 327 314 307 300 290 285 280 280 280 276 269 258 252 253 250 243 240 237 229 225 224 227 237 239 232 231 238 240 231 231 231 232 234 222 219 223 224 222 221 222 220 220 222 221 222 222 223 225 227 226 221 218 215 214 214
196 197 194 198 198 194 191 182 174 170 159 153 153 154 163 155 148 156 126 115 98 62 46 35 8 344 336 330 332 326 316 306 302 298 291 290 291 284 278 277 278 269 256 253 253 247 243 239 232 227 225 225 227 230 230 229 235 239 237 242 237 232 248 234 216 214 218 221 224 222 219 220 221 220 221 223 223 224 227 228 224 222 218 216 217
196 197 196 198 199 197 190 183 178 172 163 156 156 162 167 162 164 167 136 96 83 65 49 41 15 356 346 330 319 307 305 303 298 295 289 288 292 291 283 278 276 272 268 260 256 253 246 242 237 231 228 227 224 224 228 229 235 239 238 247 252 256 280 274 252 224 208 211 220 222 219 219 221 222 224 224 222 224 227 227 225 226 224 221 218
195 196 197 198 200 199 191 184 182 175 168 162 159 166 172 163 153 148 138 102 97 99 90 86 52 17 350 323 306 296 296 297 297 293 290 286 285 282 280 279 273 270 273 270 263 258 251 245 240 236 234 230 224 222 227 229 233 234 232 241 251 256 271 283 280 267 224 205 211 218 219 218 217 221 227 224 221 226 227 226 228 229 228 225 219
192 194 196 196 197 199 192 186 187 179 171 168 165 172 181 171 162 159 153 137 126 131 141 145 122 79 15 329 302 295 289 288 291 290 289 288 285 280 277 276 273 269 269 268 268 264 259 253 242 238 238 234 228 226 229 229 227 228 226 230 241 247 255 269 276 273 269 238 214 214 218 218 216 219 224 224 223 228 225 223 229 231 227 224 220
191 190 192 193 193 195 192 188 188 181 174 172 170 173 175 173 175 175 163 147 145 152 156 158 161 162 143 321 304 301 289 280 282 284 288 287 285 286 283 277 273 272 268 264 266 268 267 263 250 243 241 239 236 232 231 230 227 228 224 223 232 242 247 257 266 265 265 268 248 218 210 211 215 219 221 221 224 229 228 221 225 231 226 223 221
186 187 189 189 188 189 189 189 189 185 179 177 175 174 171 175 182 174 167 161 157 165 166 163 181 206 221 249 291 299 292 285 277 273 277 281 283 285 284 280 277 275 272 267 269 270 272 270 262 256 248 240 238 234 232 232 228 226 224 221 224 228 234 244 252 257 262 262 260 256 234 221 219 219 217 219 222 226 228 224 222 229 228 221 218
181 186 187 184 184 186 189 192 192 189 184 181 180 177 173 180 182 172 170 171 166 171 176 178 192 222 246 249 262 277 280 282 278 269 265 270 278 281 281 280 279 278 274 269 270 268 266 268 266 263 255 243 237 234 232 231 227 224 225 223 219 218 218 223 231 243 261 267 265 269 262 250 229 217 214 215 222 226 227 226 221 225 229 219 212